Karlovy Vary, Czech Republic

6:56 PM CEST on May 26, 2018 (GMT +0200)
Karlovy Vary

Weather History for LKKV - October, 2013

Change the Weather History Date:

Wednesday, October 2, 2013

  Actual Average (WUND) Record (WUND)
Temperature  
Mean Temperature 41 °F -  
Max Temperature 50 °F - - (-1)
Min Temperature 32 °F - - (-1)
Degree Days  
Heating Degree Days 24    
Moisture  
Dew Point 29 °F    
Average Humidity 63    
Maximum Humidity 93    
Minimum Humidity 40    
Precipitation  
Precipitation 0.00 in - - ()
Sea Level Pressure  
Sea Level Pressure 30.19 in    
Wind  
Wind Speed 9 mph ()    
Max Wind Speed 20 mph    
Max Gust Speed -    
Visibility 6.2 miles    
Events Fog    
Averages and records for this station are not official NWS values.
T = Trace of Precipitation, MM = Missing Value Source: Averaged Metar Reports

Daily Weather History Graph

Daily Weather History Graph

Search for Another Location

Airport or City:

Astronomy

Oct. 02, 2013 Rise Set
Actual Time 7:09 AM CEST 6:44 PM CEST
Civil Twilight 6:37 AM CEST 7:16 PM CEST
Nautical Twilight 5:59 AM CEST 7:54 PM CEST
Astronomical Twilight 5:21 AM CEST 8:32 PM CEST
Moon 4:12 AM CEST (10/2) 5:20 PM CEST (10/2)
Length of Visible Light 12h 39m
Length of Day
11h 34m
Waning Crescent, 7% of the Moon is Illuminated
Oct 2
Waning Crescent
Oct 5
New
Oct 12
First Quarter
Oct 19
Full
Oct 27
Last Quarter

Hourly Weather History & Observations

Time (CEST) Temp. Windchill Dew Point Humidity Pressure Visibility Wind Dir Wind Speed Gust Speed Precip Events Conditions
12:00 AM 39.2 °F 34.2 °F 33.8 °F 81% 30.06 in 6.2 mi East 6.9 mph - N/A   Mostly Cloudy
1:00 AM 39.2 °F 34.2 °F 32.0 °F 75% 30.06 in 6.2 mi East 6.9 mph - N/A   Mostly Cloudy
2:00 AM 35.6 °F 30.7 °F 32.0 °F 87% 30.06 in 6.2 mi ENE 5.8 mph - N/A   Mostly Cloudy
3:00 AM 35.6 °F 30.7 °F 30.2 °F 81% 30.09 in 6.2 mi East 5.8 mph - N/A   Partly Cloudy
4:00 AM 35.6 °F 29.9 °F 30.2 °F 81% 30.09 in - ENE 6.9 mph - N/A   Clear
5:00 AM 33.8 °F 28.6 °F 30.2 °F 87% 30.09 in - ENE 5.8 mph - N/A   Clear
6:00 AM 33.8 °F 28.6 °F 30.2 °F 87% 30.12 in - East 5.8 mph - N/A   Clear
7:00 AM 32.0 °F 26.4 °F 30.2 °F 93% 30.12 in 6.2 mi East 5.8 mph - N/A Fog Patches of Fog
8:00 AM 33.8 °F 29.6 °F 30.2 °F 87% 30.15 in - East 4.6 mph - N/A   Clear
8:30 AM 35.6 °F 31.7 °F 32.0 °F 87% 30.15 in - East 4.6 mph - N/A   Clear
9:00 AM 39.2 °F 37.0 °F 33.8 °F 81% 30.18 in - East 3.5 mph - N/A   Clear
9:30 AM 42.8 °F 40.1 °F 33.8 °F 70% 30.18 in - ENE 4.6 mph - N/A   Clear
10:00 AM 42.8 °F 38.6 °F 32.0 °F 66% 30.18 in - Variable 6.9 mph - N/A   Clear
10:30 AM 44.6 °F 37.2 °F 30.2 °F 57% 30.18 in - ESE 17.3 mph - N/A   Clear
11:00 AM 46.4 °F 39.0 °F 28.4 °F 50% 30.18 in 6.2 mi ESE 19.6 mph - N/A   Partly Cloudy
11:30 AM 46.4 °F 39.2 °F 28.4 °F 50% 30.21 in 6.2 mi ESE 18.4 mph - N/A   Partly Cloudy
12:00 PM 46.4 °F 39.0 °F 26.6 °F 46% 30.21 in 6.2 mi ESE 19.6 mph - N/A   Scattered Clouds
12:30 PM 46.4 °F 39.5 °F 26.6 °F 46% 30.21 in 6.2 mi ESE 17.3 mph - N/A   Scattered Clouds
1:00 PM 48.2 °F - 30.2 °F 50% 30.21 in 6.2 mi East 13.8 mph - N/A   Scattered Clouds
1:30 PM 48.2 °F - 26.6 °F 43% 30.21 in 6.2 mi ESE 18.4 mph - N/A   Partly Cloudy
2:00 PM 50.0 °F - 26.6 °F 40% 30.21 in 6.2 mi East 15.0 mph - N/A   Partly Cloudy
2:30 PM 50.0 °F - 28.4 °F 43% 30.21 in 6.2 mi ESE 15.0 mph - N/A   Partly Cloudy
3:00 PM 50.0 °F - 26.6 °F 40% 30.21 in - ESE 15.0 mph - N/A   Clear
3:30 PM 50.0 °F - 26.6 °F 40% 30.21 in - ESE 15.0 mph - N/A   Clear
4:00 PM 50.0 °F - 28.4 °F 43% 30.21 in - ESE 15.0 mph - N/A   Clear
4:30 PM 48.2 °F - 26.6 °F 43% 30.21 in - ESE 15.0 mph - N/A   Clear
5:00 PM 48.2 °F - 26.6 °F 43% 30.21 in - East 13.8 mph - N/A   Clear
5:30 PM 46.4 °F 40.4 °F 28.4 °F 50% 30.21 in - East 13.8 mph - N/A   Clear
6:00 PM 46.4 °F 40.7 °F 28.4 °F 50% 30.21 in - East 12.7 mph - N/A   Clear
6:30 PM 44.6 °F 40.2 °F 28.4 °F 53% 30.24 in - East 8.1 mph - N/A   Clear
7:00 PM 41.0 °F 35.2 °F 28.4 °F 61% 30.24 in - East 9.2 mph - N/A   Clear
7:30 PM 39.2 °F 34.2 °F 28.4 °F 65% 30.24 in - ESE 6.9 mph - N/A   Clear
8:00 PM 37.4 °F 32.1 °F 28.4 °F 70% 30.24 in - ESE 6.9 mph - N/A   Clear
8:30 PM 37.4 °F 32.1 °F 28.4 °F 70% 30.27 in - ESE 6.9 mph - N/A   Clear
9:00 PM 37.4 °F 32.1 °F 28.4 °F 70% 30.27 in - ESE 6.9 mph - N/A   Clear
10:00 PM 35.6 °F 29.2 °F 26.6 °F 70% 30.27 in - East 8.1 mph - N/A   Clear
11:00 PM 33.8 °F 27.7 °F 28.4 °F 81% 30.30 in - East 6.9 mph - N/A   Clear